Time,TemperatureF,DewpointF,PressureIn,WindDirection,WindDirectionDegrees,WindSpeedMPH,WindSpeedGustMPH,Humidity,HourlyPrecipIn,Conditions,Clouds,dailyrainin,SolarRadiationWatts/m^2,SoftwareType,DateUTC
2013-04-02 00:02:00,31.0,30.0,-100.00,SSW,211,6.0,7.0,94,-99.99,,,-99.99,0.130000,,2013-04-02 06:02:00,
2013-04-02 00:12:00,32.0,30.0,-100.00,WSW,241,5.0,5.0,94,-99.99,,,-99.99,0.090000,,2013-04-02 06:12:00,
2013-04-02 00:22:00,32.0,30.0,-100.00,SSW,208,4.0,5.0,94,-99.99,,,-99.99,0.110000,,2013-04-02 06:22:00,
2013-04-02 00:31:00,32.0,30.0,-100.00,SW,215,4.0,5.0,94,-99.99,,,-99.99,0.100000,,2013-04-02 06:31:00,
2013-04-02 00:42:00,32.0,30.0,-100.00,SSW,209,5.0,7.0,94,-99.99,,,-99.99,0.070000,,2013-04-02 06:42:00,
2013-04-02 00:52:00,31.0,30.0,-100.00,SW,222,4.0,7.0,94,-99.99,,,-99.99,0.110000,,2013-04-02 06:52:00,
2013-04-02 01:01:00,31.0,30.0,-100.00,SW,230,3.0,4.0,94,-99.99,,,-99.99,0.120000,,2013-04-02 07:01:00,
2013-04-02 01:12:00,31.0,30.0,-100.00,North,0,0.0,3.0,94,-99.99,,,-99.99,0.110000,,2013-04-02 07:12:00,
2013-04-02 01:22:00,31.0,30.0,-100.00,North,0,0.0,0.0,94,-99.99,,,-99.99,0.070000,,2013-04-02 07:22:00,
2013-04-02 01:32:00,32.0,30.0,-100.00,North,0,0.0,0.0,94,-99.99,,,-99.99,0.120000,,2013-04-02 07:32:00,
2013-04-02 01:42:00,32.0,30.0,-100.00,North,0,0.0,0.0,94,-99.99,,,-99.99,0.120000,,2013-04-02 07:42:00,
2013-04-02 01:52:00,31.0,30.0,-100.00,North,0,0.0,0.0,94,-99.99,,,-99.99,0.100000,,2013-04-02 07:52:00,
2013-04-02 02:02:00,31.0,30.0,-100.00,North,0,0.0,0.0,94,-99.99,,,-99.99,0.100000,,2013-04-02 08:02:00,
2013-04-02 02:12:00,31.0,30.0,-100.00,North,0,0.0,0.0,94,-99.99,,,-99.99,0.080000,,2013-04-02 08:12:00,
2013-04-02 02:22:00,31.0,30.0,-100.00,North,0,0.0,0.0,95,-99.99,,,-99.99,0.110000,,2013-04-02 08:22:00,
2013-04-02 02:31:00,31.0,30.0,-100.00,North,0,0.0,0.0,94,-99.99,,,-99.99,0.110000,,2013-04-02 08:31:00,
2013-04-02 02:42:00,31.0,30.0,-100.00,North,0,0.0,0.0,95,-99.99,,,-99.99,0.090000,,2013-04-02 08:42:00,
2013-04-02 02:52:00,31.0,30.0,-100.00,North,0,0.0,0.0,94,-99.99,,,-99.99,0.070000,,2013-04-02 08:52:00,
2013-04-02 03:01:00,31.0,30.0,-100.00,North,0,0.0,0.0,95,-99.99,,,-99.99,0.100000,,2013-04-02 09:01:00,
2013-04-02 03:12:00,31.0,30.0,-100.00,North,0,0.0,0.0,95,-99.99,,,-99.99,0.110000,,2013-04-02 09:12:00,
2013-04-02 03:22:00,31.0,30.0,-100.00,North,0,0.0,0.0,95,-99.99,,,-99.99,0.110000,,2013-04-02 09:22:00,
2013-04-02 03:32:00,31.0,30.0,-100.00,North,0,0.0,0.0,95,-99.99,,,-99.99,0.120000,,2013-04-02 09:32:00,
2013-04-02 03:42:00,31.0,30.0,-100.00,North,0,0.0,0.0,95,-99.99,,,-99.99,0.040000,,2013-04-02 09:42:00,
2013-04-02 03:52:00,31.0,30.0,-100.00,North,0,0.0,0.0,95,-99.99,,,-99.99,0.050000,,2013-04-02 09:52:00,
2013-04-02 04:03:00,31.0,30.0,-100.00,North,0,0.0,0.0,95,-99.99,,,-99.99,0.040000,,2013-04-02 10:03:00,
2013-04-02 04:13:00,31.0,30.0,-100.00,North,0,0.0,0.0,95,-99.99,,,-99.99,0.020000,,2013-04-02 10:13:00,
2013-04-02 04:23:00,31.0,30.0,-100.00,North,0,0.0,0.0,95,-99.99,,,-99.99,0.020000,,2013-04-02 10:23:00,
2013-04-02 04:33:00,32.0,30.0,-100.00,North,0,0.0,0.0,95,-99.99,,,-99.99,0.030000,,2013-04-02 10:33:00,
2013-04-02 04:42:00,32.0,30.0,-100.00,North,0,0.0,0.0,95,-99.99,,,-99.99,0.050000,,2013-04-02 10:42:00,
2013-04-02 04:52:00,32.0,30.0,-100.00,North,0,0.0,0.0,95,-99.99,,,-99.99,0.090000,,2013-04-02 10:52:00,
2013-04-02 05:02:00,32.0,30.0,-100.00,North,0,0.0,0.0,95,-99.99,,,-99.99,0.100000,,2013-04-02 11:02:00,
2013-04-02 05:12:00,32.0,30.0,-100.00,North,0,0.0,0.0,95,-99.99,,,-99.99,0.110000,,2013-04-02 11:12:00,
2013-04-02 05:22:00,32.0,30.0,-100.00,North,0,0.0,0.0,94,-99.99,,,-99.99,0.090000,,2013-04-02 11:22:00,
2013-04-02 05:32:00,32.0,30.0,-100.00,North,0,0.0,0.0,95,-99.99,,,-99.99,0.050000,,2013-04-02 11:32:00,
2013-04-02 05:42:00,32.0,30.0,-100.00,North,0,0.0,0.0,95,-99.99,,,-99.99,0.070000,,2013-04-02 11:42:00,
2013-04-02 05:52:00,32.0,30.0,-100.00,North,0,0.0,0.0,95,-99.99,,,-99.99,0.080000,,2013-04-02 11:52:00,
2013-04-02 06:02:00,32.0,31.0,-100.00,North,0,0.0,0.0,95,-99.99,,,-99.99,0.100000,,2013-04-02 12:02:00,
2013-04-02 06:11:00,32.0,30.0,-100.00,North,0,0.0,0.0,95,-99.99,,,-99.99,0.030000,,2013-04-02 12:11:00,
2013-04-02 06:22:00,31.0,30.0,-100.00,North,0,0.0,0.0,95,-99.99,,,-99.99,0.100000,,2013-04-02 12:22:00,
2013-04-02 06:32:00,32.0,30.0,-100.00,North,0,0.0,0.0,95,-99.99,,,-99.99,0.110000,,2013-04-02 12:32:00,
2013-04-02 06:42:00,32.0,30.0,-100.00,North,0,0.0,0.0,95,-99.99,,,-99.99,0.110000,,2013-04-02 12:42:00,
2013-04-02 06:52:00,31.0,30.0,-100.00,North,0,0.0,0.0,95,-99.99,,,-99.99,0.090000,,2013-04-02 12:52:00,
2013-04-02 07:01:00,32.0,30.0,-100.00,North,0,0.0,0.0,95,-99.99,,,-99.99,0.090000,,2013-04-02 13:01:00,
2013-04-02 07:12:00,32.0,30.0,-100.00,North,0,0.0,0.0,95,-99.99,,,-99.99,0.110000,,2013-04-02 13:12:00,
2013-04-02 07:22:00,32.0,31.0,-100.00,North,0,0.0,0.0,95,-99.99,,,-99.99,0.130000,,2013-04-02 13:22:00,
2013-04-02 07:32:00,32.0,31.0,-100.00,North,0,0.0,0.0,95,-99.99,,,-99.99,0.190000,,2013-04-02 13:32:00,
2013-04-02 07:42:00,32.0,31.0,-100.00,North,0,0.0,0.0,95,-99.99,,,-99.99,0.200000,,2013-04-02 13:42:00,
2013-04-02 07:52:00,32.0,31.0,-100.00,North,0,0.0,0.0,95,-99.99,,,-99.99,0.660000,,2013-04-02 13:52:00,
2013-04-02 08:02:00,33.0,31.0,-100.00,North,0,0.0,0.0,95,-99.99,,,-99.99,1.880000,,2013-04-02 14:02:00,
2013-04-02 08:12:00,33.0,32.0,-100.00,North,0,0.0,0.0,95,-99.99,,,-99.99,3.230000,,2013-04-02 14:12:00,
2013-04-02 08:22:00,33.0,32.0,-100.00,North,0,0.0,0.0,95,-99.99,,,-99.99,4.490000,,2013-04-02 14:22:00,
2013-04-02 08:32:00,33.0,32.0,-100.00,North,0,0.0,0.0,94,-99.99,,,-99.99,3.560000,,2013-04-02 14:32:00,
2013-04-02 08:42:00,33.0,32.0,-100.00,North,0,0.0,0.0,94,-99.99,,,-99.99,3.750000,,2013-04-02 14:42:00,
2013-04-02 08:52:00,33.0,32.0,-100.00,North,0,0.0,0.0,94,-99.99,,,-99.99,7.840000,,2013-04-02 14:52:00,
2013-04-02 09:02:00,33.0,32.0,-100.00,WNW,302,0.0,2.0,93,-99.99,,,-99.99,10.860000,,2013-04-02 15:02:00,
2013-04-02 09:11:00,33.0,31.0,-100.00,East,101,3.0,8.0,92,-99.99,,,-99.99,18.670000,,2013-04-02 15:11:00,
2013-04-02 09:22:00,34.0,31.0,-100.00,SE,126,6.0,11.0,91,-99.99,,,-99.99,35.040001,,2013-04-02 15:22:00,
2013-04-02 09:33:00,34.0,31.0,-100.00,SE,124,8.0,13.0,88,-99.99,,,-99.99,97.800003,,2013-04-02 15:33:00,
2013-04-02 09:42:00,35.0,32.0,-100.00,SE,135,3.0,14.0,88,-99.99,,,-99.99,101.800003,,2013-04-02 15:42:00,
2013-04-02 09:54:00,35.0,31.0,-100.00,ESE,107,8.0,16.0,85,-99.99,,,-99.99,75.080002,,2013-04-02 15:54:00,
2013-04-02 10:03:00,35.0,31.0,-100.00,ESE,120,9.0,15.0,84,-99.99,,,-99.99,73.440002,,2013-04-02 16:03:00,
2013-04-02 10:13:00,36.0,30.0,-100.00,East,94,8.0,15.0,79,-99.99,,,-99.99,265.100006,,2013-04-02 16:13:00,
2013-04-02 10:24:00,36.0,30.0,-100.00,ESE,110,10.0,16.0,78,-99.99,,,-99.99,508.799988,,2013-04-02 16:24:00,
2013-04-02 10:33:00,37.0,30.0,-100.00,ESE,112,5.0,14.0,78,-99.99,,,-99.99,393.899994,,2013-04-02 16:33:00,
2013-04-02 10:43:00,37.0,31.0,-100.00,ESE,122,3.0,11.0,78,-99.99,,,-99.99,232.399994,,2013-04-02 16:43:00,
2013-04-02 10:52:00,37.0,32.0,-100.00,ESE,122,4.0,12.0,80,-99.99,,,-99.99,305.000000,,2013-04-02 16:52:00,
2013-04-02 11:03:00,37.0,31.0,-100.00,SE,126,3.0,10.0,78,-99.99,,,-99.99,198.600006,,2013-04-02 17:03:00,
2013-04-02 11:12:00,37.0,31.0,-100.00,SW,224,2.0,5.0,77,-99.99,,,-99.99,225.600006,,2013-04-02 17:12:00,
2013-04-02 11:23:00,38.0,32.0,-100.00,ESE,115,3.0,7.0,79,-99.99,,,-99.99,243.800003,,2013-04-02 17:23:00,
2013-04-02 11:33:00,37.0,31.0,-100.00,ESE,118,7.0,10.0,80,-99.99,,,-99.99,242.300003,,2013-04-02 17:33:00,
2013-04-02 11:42:00,37.0,32.0,-100.00,South,176,5.0,15.0,82,-99.99,,,-99.99,192.399994,,2013-04-02 17:42:00,
2013-04-02 11:53:00,37.0,32.0,-100.00,SE,128,3.0,9.0,83,-99.99,,,-99.99,183.300003,,2013-04-02 17:53:00,
2013-04-02 12:02:00,37.0,32.0,-100.00,SSW,205,4.0,6.0,81,-99.99,,,-99.99,231.300003,,2013-04-02 18:02:00,
2013-04-02 12:12:00,37.0,32.0,-100.00,SW,231,2.0,5.0,80,-99.99,,,-99.99,205.199997,,2013-04-02 18:12:00,
2013-04-02 12:22:00,38.0,32.0,-100.00,South,169,1.0,3.0,80,-99.99,,,-99.99,163.000000,,2013-04-02 18:22:00,
2013-04-02 12:33:00,38.0,32.0,-100.00,SSE,164,4.0,6.0,80,-99.99,,,-99.99,150.100006,,2013-04-02 18:33:00,
2013-04-02 12:42:00,38.0,32.0,-100.00,SE,124,4.0,9.0,78,-99.99,,,-99.99,271.100006,,2013-04-02 18:42:00,
2013-04-02 12:53:00,39.0,31.0,-100.00,SE,134,3.0,11.0,72,-99.99,,,-99.99,521.799988,,2013-04-02 18:53:00,
2013-04-02 13:02:00,40.0,31.0,-100.00,NNE,22,4.0,9.0,70,-99.99,,,-99.99,483.500000,,2013-04-02 19:02:00,
2013-04-02 13:12:00,40.0,31.0,-100.00,SSE,150,3.0,11.0,70,-99.99,,,-99.99,408.299988,,2013-04-02 19:12:00,
2013-04-02 13:22:00,39.0,30.0,-100.00,East,79,7.0,16.0,68,-99.99,,,-99.99,366.200012,,2013-04-02 19:22:00,
2013-04-02 13:32:00,42.0,32.0,-100.00,ENE,66,2.0,13.0,66,-99.99,,,-99.99,888.000000,,2013-04-02 19:32:00,
2013-04-02 13:43:00,40.0,29.0,-100.00,ENE,63,7.0,12.0,63,-99.99,,,-99.99,484.100006,,2013-04-02 19:43:00,
2013-04-02 13:52:00,40.0,29.0,-100.00,East,96,5.0,17.0,65,-99.99,,,-99.99,418.600006,,2013-04-02 19:52:00,
2013-04-02 14:02:00,40.0,28.0,-100.00,ESE,118,5.0,14.0,61,-99.99,,,-99.99,333.899994,,2013-04-02 20:02:00,
2013-04-02 14:12:00,41.0,29.0,-100.00,NE,46,3.0,11.0,61,-99.99,,,-99.99,334.299988,,2013-04-02 20:12:00,
2013-04-02 14:21:00,42.0,30.0,-100.00,NE,40,3.0,6.0,62,-99.99,,,-99.99,317.100006,,2013-04-02 20:21:00,
2013-04-02 14:32:00,43.0,30.0,-100.00,SE,144,0.0,5.0,61,-99.99,,,-99.99,266.899994,,2013-04-02 20:32:00,
2013-04-02 14:52:00,43.0,27.0,-100.00,East,88,5.0,9.0,52,-99.99,,,-99.99,588.200012,,2013-04-02 20:52:00,
2013-04-02 15:02:00,44.0,31.0,-100.00,SW,215,2.0,9.0,59,-99.99,,,-99.99,349.200012,,2013-04-02 21:02:00,
2013-04-02 15:12:00,46.0,28.0,-100.00,East,89,4.0,8.0,49,-99.99,,,-99.99,1058.000000,,2013-04-02 21:12:00,
2013-04-02 15:22:00,47.0,28.0,-100.00,SSE,157,6.0,9.0,47,-99.99,,,-99.99,1091.000000,,2013-04-02 21:22:00,
2013-04-02 15:32:00,47.0,28.0,-100.00,SSE,157,6.0,9.0,47,-99.99,,,-99.99,1091.000000,,2013-04-02 21:32:00,
2013-04-02 15:42:00,47.0,28.0,-100.00,SSE,157,6.0,9.0,47,-99.99,,,-99.99,1091.000000,,2013-04-02 21:42:00,
2013-04-02 15:54:00,47.0,29.0,-100.00,ESE,110,4.0,11.0,49,-99.99,,,-99.99,856.000000,,2013-04-02 21:54:00,
2013-04-02 16:03:00,47.0,27.0,-100.00,NE,49,5.0,16.0,44,-99.99,,,-99.99,858.000000,,2013-04-02 22:03:00,
2013-04-02 16:13:00,48.0,27.0,-100.00,SSE,156,9.0,13.0,43,-99.99,,,-99.99,776.000000,,2013-04-02 22:13:00,
2013-04-02 16:23:00,46.0,30.0,-100.00,ENE,59,9.0,12.0,54,-99.99,,,-99.99,790.700012,,2013-04-02 22:23:00,
2013-04-02 16:32:00,47.0,29.0,-100.00,ENE,59,4.0,10.0,49,-99.99,,,-99.99,781.400024,,2013-04-02 22:32:00,
2013-04-02 16:43:00,48.0,30.0,-100.00,ESE,103,3.0,10.0,49,-99.99,,,-99.99,768.400024,,2013-04-02 22:43:00,
2013-04-02 17:02:00,46.0,31.0,-100.00,ESE,121,1.0,7.0,54,-99.99,,,-99.99,412.100006,,2013-04-02 23:02:00,
2013-04-02 17:12:00,45.0,28.0,-100.00,East,91,3.0,7.0,51,-99.99,,,-99.99,187.399994,,2013-04-02 23:12:00,
2013-04-02 17:23:00,45.0,29.0,-100.00,North,360,1.0,4.0,53,-99.99,,,-99.99,87.099998,,2013-04-02 23:23:00,
2013-04-02 17:33:00,47.0,30.0,-100.00,NNE,21,1.0,5.0,50,-99.99,,,-99.99,212.199997,,2013-04-02 23:33:00,
2013-04-02 17:42:00,50.0,31.0,-100.00,SSW,201,2.0,4.0,46,-99.99,,,-99.99,507.700012,,2013-04-02 23:42:00,
2013-04-02 17:52:00,48.0,29.0,-100.00,SSE,168,4.0,6.0,46,-99.99,,,-99.99,507.299988,,2013-04-02 23:52:00,
2013-04-02 18:02:00,49.0,28.0,-100.00,ENE,70,2.0,8.0,43,-99.99,,,-99.99,471.799988,,2013-04-03 00:02:00,
2013-04-02 18:12:00,47.0,29.0,-100.00,WSW,239,8.0,11.0,49,-99.99,,,-99.99,433.700012,,2013-04-03 00:12:00,
2013-04-02 18:23:00,47.0,30.0,-100.00,SW,216,9.0,11.0,51,-99.99,,,-99.99,395.399994,,2013-04-03 00:23:00,
2013-04-02 18:32:00,46.0,32.0,-100.00,WSW,245,6.0,10.0,57,-99.99,,,-99.99,359.899994,,2013-04-03 00:32:00,
2013-04-02 18:44:00,46.0,32.0,-100.00,SW,223,8.0,12.0,56,-99.99,,,-99.99,328.200012,,2013-04-03 00:44:00,
2013-04-02 18:53:00,46.0,34.0,-100.00,SW,229,10.0,13.0,62,-99.99,,,-99.99,274.899994,,2013-04-03 00:53:00,
2013-04-02 19:02:00,46.0,34.0,-100.00,SW,229,10.0,13.0,62,-99.99,,,-99.99,274.899994,,2013-04-03 01:02:00,
2013-04-02 19:12:00,45.0,34.0,-100.00,SW,219,11.0,12.0,63,-99.99,,,-99.99,215.199997,,2013-04-03 01:12:00,
2013-04-02 19:21:00,45.0,33.0,-100.00,SW,227,10.0,12.0,63,-99.99,,,-99.99,183.000000,,2013-04-03 01:21:00,
2013-04-02 19:33:00,44.0,33.0,-100.00,SW,222,10.0,11.0,65,-99.99,,,-99.99,112.800003,,2013-04-03 01:33:00,
2013-04-02 19:42:00,43.0,33.0,-100.00,WSW,238,9.0,11.0,67,-99.99,,,-99.99,39.220001,,2013-04-03 01:42:00,
2013-04-02 19:52:00,43.0,34.0,-100.00,WSW,256,8.0,8.0,70,-99.99,,,-99.99,20.040001,,2013-04-03 01:52:00,
2013-04-02 20:03:00,43.0,34.0,-100.00,WSW,256,8.0,8.0,70,-99.99,,,-99.99,20.040001,,2013-04-03 02:03:00,
2013-04-02 20:12:00,42.0,34.0,-100.00,West,267,5.0,7.0,71,-99.99,,,-99.99,14.930000,,2013-04-03 02:12:00,
2013-04-02 20:21:00,42.0,33.0,-100.00,West,270,6.0,7.0,71,-99.99,,,-99.99,8.450000,,2013-04-03 02:21:00,
2013-04-02 20:33:00,41.0,33.0,-100.00,West,276,5.0,6.0,72,-99.99,,,-99.99,3.290000,,2013-04-03 02:33:00,
2013-04-02 20:42:00,41.0,33.0,-100.00,WNW,286,5.0,7.0,72,-99.99,,,-99.99,0.700000,,2013-04-03 02:42:00,
2013-04-02 20:52:00,41.0,33.0,-100.00,WNW,283,6.0,7.0,73,-99.99,,,-99.99,0.100000,,2013-04-03 02:52:00,
2013-04-02 21:03:00,41.0,33.0,-100.00,WNW,292,5.0,6.0,72,-99.99,,,-99.99,0.000000,,2013-04-03 03:03:00,
2013-04-02 21:13:00,41.0,33.0,-100.00,WNW,293,5.0,6.0,72,-99.99,,,-99.99,0.000000,,2013-04-03 03:13:00,
2013-04-02 21:22:00,41.0,33.0,-100.00,WNW,293,5.0,6.0,72,-99.99,,,-99.99,0.000000,,2013-04-03 03:22:00,
2013-04-02 21:34:00,41.0,33.0,-100.00,WNW,289,5.0,5.0,72,-99.99,,,-99.99,0.000000,,2013-04-03 03:34:00,
2013-04-02 21:43:00,40.0,32.0,-100.00,WNW,283,4.0,6.0,73,-99.99,,,-99.99,0.030000,,2013-04-03 03:43:00,
2013-04-02 21:53:00,40.0,32.0,-100.00,SW,227,3.0,5.0,73,-99.99,,,-99.99,0.010000,,2013-04-03 03:53:00,
2013-04-02 22:03:00,38.0,31.0,-100.00,SW,219,5.0,7.0,75,-99.99,,,-99.99,0.010000,,2013-04-03 04:03:00,
2013-04-02 22:12:00,38.0,32.0,-100.00,WSW,245,4.0,6.0,79,-99.99,,,-99.99,0.010000,,2013-04-03 04:12:00,
2013-04-02 22:23:00,40.0,33.0,-100.00,WNW,296,4.0,5.0,76,-99.99,,,-99.99,0.030000,,2013-04-03 04:23:00,
2013-04-02 22:32:00,38.0,32.0,-100.00,WSW,242,3.0,6.0,77,-99.99,,,-99.99,0.000000,,2013-04-03 04:32:00,
2013-04-02 22:42:00,38.0,32.0,-100.00,WSW,242,3.0,6.0,77,-99.99,,,-99.99,0.000000,,2013-04-03 04:42:00,
2013-04-02 22:53:00,39.0,33.0,-100.00,West,264,4.0,5.0,76,-99.99,,,-99.99,0.000000,,2013-04-03 04:53:00,
2013-04-02 23:02:00,40.0,33.0,-100.00,West,275,4.0,5.0,73,-99.99,,,-99.99,0.000000,,2013-04-03 05:02:00,
2013-04-02 23:12:00,39.0,32.0,-100.00,SW,222,1.0,5.0,73,-99.99,,,-99.99,0.010000,,2013-04-03 05:12:00,
2013-04-02 23:22:00,38.0,32.0,-100.00,WSW,245,1.0,2.0,76,-99.99,,,-99.99,0.010000,,2013-04-03 05:22:00,
2013-04-02 23:32:00,39.0,32.0,-100.00,West,265,3.0,5.0,75,-99.99,,,-99.99,0.020000,,2013-04-03 05:32:00,
2013-04-02 23:42:00,38.0,31.0,-100.00,West,261,2.0,4.0,77,-99.99,,,-99.99,0.020000,,2013-04-03 05:42:00,
2013-04-02 23:52:00,39.0,32.0,-100.00,WNW,302,6.0,7.0,73,-99.99,,,-99.99,0.020000,,2013-04-03 05:52:00,